Temperature
13 13 13 13 13 13 13 13 13 14 13 12 11 12 12 12 11 11 11 12 12 12 12 12 12 12 12 12 12 12 12 11 11 11 11 11 11 11
13 13 13 13 13 13 13 12 12 13 13 12 11 11 11 11 11 11 11 11 11 11 11 12 11 11 11 11 11 11 11 11 11 11 11 11 11 11
13 13 13 13 13 13 13 12 12 12 12 12 11 11 11 11 11 11 11 11 11 11 11 11 11 11 11 11 11 11 11 11 11 11 11 11 11 10
13 13 13 13 13 13 13 12 12 12 12 11 11 11 11 11 11 11 11 11 11 11 11 11 11 11 11 11 11 11 11 11 11 11 10 10 10 10
13 13 13 13 13 13 12 12 12 12 12 11 11 11 11 11 10 10 10 10 10 10 11 11 11 11 11 11 11 11 11 11 11 10 10 10 10 10
13 13 13 13 12 12 12 12 12 12 11 11 11 11 11 10 10 10 10 10 10 10 10 10 10 11 11 11 10 11 10 10 10 10 10 10 10 10
13 13 13 13 13 12 12 12 12 11 11 11 11 11 10 10 10 10 10 10 10 10 10 10 10 10 10 10 10 10 10 10 10 10 10 10 10 9
13 13 12 13 13 12 12 12 12 11 11 11 11 11 10 10 10 10 10 10 9 10 9 9 10 9 9 10 10 10 10 10 10 9 9 9 9 9
12 12 12 12 12 12 12 12 12 12 11 11 11 10 10 10 10 10 10 10 10 9 9 9 9 9 9 9 10 10 10 9 9 9 9 9 9 9
12 12 12 12 12 12 12 11 11 11 11 11 11 10 10 10 10 10 10 10 9 9 9 9 9 9 9 9 9 9 9 9 9 9 9 9 9 8
12 12 12 11 11 11 11 11 11 11 11 11 11 10 10 10 10 10 9 9 9 9 9 9 8 8 8 8 9 9 9 9 9 9 8 8 8 8
11 11 11 11 11 11 10 10 10 10 10 10 10 10 10 10 10 9 9 9 9 8 9 8 8 8 8 8 8 8 8 8 8 8 8 8 8 7
11 11 11 11 11 10 10 10 10 10 10 10 10 10 10 10 9 9 9 9 8 8 8 8 8 8 7 7 7 7 7 7 7 7 7 8 7 7
11 11 11 11 10 10 10 10 10 10 9 9 9 9 9 9 9 9 9 9 8 8 8 8 8 7 7 7 7 7 7 7 7 7 7 7 7 7
11 11 10 10 10 10 10 9 9 9 9 9 9 9 9 9 9 9 9 8 8 8 8 8 7 7 7 7 7 6 6 6 6 6 6 6 6 6
10 10 10 10 10 9 9 9 9 9 8 8 8 8 8 8 8 8 8 8 8 8 8 7 7 7 7 6 6 6 6 6 5 6 6 6 6 6
10 10 9 9 9 9 9 9 9 8 8 8 8 8 8 8 8 8 8 7 7 7 7 7 7 7 6 6 6 6 6 5 5 5 5 5 5 5
10 9 9 9 9 9 9 8 8 8 8 8 8 8 8 8 7 7 7 7 7 7 6 6 6 6 6 6 6 6 5 5 5 5 5 5 5 5
9 9 9 9 9 9 9 8 8 8 8 8 8 8 7 7 7 7 7 7 6 6 6 6 6 6 5 5 5 5 5 5 5 4 4 4 4 4
9 9 9 9 9 9 8 8 8 8 8 8 8 7 7 7 7 7 6 6 6 6 6 6 5 5 5 5 5 5 5 4 4 4 4 4 4 4
9 9 9 9 9 8 8 8 8 8 8 8 7 7 7 7 6 6 6 6 6 6 5 5 5 5 5 5 4 4 4 4 4 4 4 3 3 4
9 9 9 9 8 8 8 8 8 8 8 7 7 7 7 6 6 6 6 6 6 5 5 5 5 5 5 4 4 4 4 4 4 4 4 3 3 3
9 9 9 9 8 8 8 8 8 7 7 7 7 7 6 6 6 6 6 6 5 5 5 5 5 4 4 4 4 3 3 3 3 3 3 3 3 3
Wind_Speed
1 1 1 0 1 1 1 2 2 1 1 1 0 1 2 2 2 3 4 6 6 5 6 6 7 7 7 7 7 8 8 8 8 8 7 7 7 6
1 2 1 1 0 1 2 2 2 2 0 1 1 1 2 2 2 2 3 5 4 5 5 5 5 5 5 6 6 6 7 7 7 7 7 7 7 7
2 2 1 1 1 2 2 2 2 1 1 1 1 2 2 1 2 1 1 1 3 3 3 4 4 4 4 4 5 5 6 6 6 6 6 6 7 6
2 2 2 1 2 2 2 2 2 2 2 2 3 2 2 1 0 0 1 1 2 3 2 2 3 3 3 3 4 4 5 6 6 6 5 5 6 6
2 2 2 2 2 2 2 2 2 2 2 3 2 2 2 2 1 1 1 0 0 1 1 0 1 1 2 3 3 4 4 4 5 5 5 5 5 5
2 2 2 3 3 3 2 3 3 3 3 3 3 3 3 3 3 2 1 1 1 1 1 1 1 0 1 1 2 3 3 3 4 4 5 4 4 4
2 2 2 2 3 2 2 3 3 3 4 4 3 3 3 3 3 2 2 2 1 1 1 1 1 1 1 1 0 1 1 2 3 3 3 3 3 4
3 2 2 2 2 2 2 2 3 4 4 4 4 4 4 4 3 3 3 3 2 1 2 1 1 1 1 2 2 1 0 1 2 2 2 2 3 3
3 3 2 2 2 3 4 4 3 3 5 5 5 5 4 4 4 4 4 3 2 1 2 2 1 1 1 2 2 1 0 0 1 1 1 2 2 3
4 3 3 3 3 3 3 3 3 3 4 5 5 4 4 4 4 4 3 2 2 2 2 3 2 2 2 1 1 1 1 1 1 1 2 2 2 3
4 4 4 4 2 2 4 4 3 2 0 1 2 1 1 1 2 3 3 3 3 3 2 2 2 2 3 2 2 3 3 2 2 3 3 3 4 4
4 4 3 3 2 4 5 4 4 3 3 3 4 4 4 4 5 5 4 4 4 3 2 3 3 3 3 2 1 1 2 3 4 4 4 4 4 4
4 4 3 4 4 5 5 4 3 3 3 3 3 3 3 3 4 4 4 4 4 3 2 3 3 4 4 3 3 3 3 3 3 3 4 4 4 3
4 4 3 5 5 5 4 2 1 2 2 2 3 3 3 3 3 3 3 3 3 4 4 4 4 4 4 5 4 3 3 3 3 3 3 3 5 6
4 2 2 4 5 5 5 5 5 4 4 4 3 3 3 2 2 2 2 2 2 3 4 5 5 4 4 5 5 4 4 4 3 4 4 3 3 3
4 3 5 5 5 3 4 5 5 4 4 4 3 3 2 2 3 3 3 3 2 2 3 4 4 5 4 5 5 5 5 4 3 4 4 4 3 3
4 4 4 4 4 4 4 4 4 4 4 4 3 3 3 3 3 3 3 3 4 3 2 2 2 3 4 5 5 5 5 4 4 4 4 4 4 3
5 5 6 6 6 6 6 5 5 5 5 4 4 4 4 4 4 3 3 4 4 4 3 3 3 3 3 3 4 5 4 4 4 4 4 5 5 4
6 6 6 6 6 6 6 6 5 5 5 5 4 4 4 4 4 4 4 4 4 4 4 4 4 4 5 5 3 3 4 4 4 4 4 5 5 5
7 7 6 6 6 6 6 6 5 5 5 5 5 5 5 5 5 5 4 4 4 4 4 3 4 4 5 5 4 3 4 4 4 5 5 5 5 5
6 6 6 6 6 5 5 5 5 5 5 5 5 5 5 5 5 5 4 5 5 4 4 4 3 4 4 3 3 4 3 3 4 4 5 5 5 4
6 6 6 6 5 5 5 5 5 5 5 5 5 5 5 5 5 6 5 5 4 4 4 3 2 2 3 4 4 4 4 3 3 4 5 4 4 4
6 6 5 5 5 5 5 6 6 5 5 5 5 5 5 5 5 5 5 5 4 4 4 3 3 2 3 3 4 4 5 4 3 3 3 4 6 9
Wind_Direction
280 275 283 289 234 232 224 239 270 265 165 117 86 84 91 73 69 73 67 68 55 47 46 43 38 36 36 32 30 29 31 32 33 35 34 30 31 34
272 276 289 270 202 222 225 238 254 263 222 133 137 127 105 110 86 69 78 83 66 54 47 39 30 26 29 29 28 30 31 31 31 34 35 35 33 34
227 233 238 245 219 217 232 229 223 220 186 157 148 147 159 144 124 98 67 61 70 74 49 31 21 15 15 17 21 24 25 26 25 26 30 33 33 34
243 232 233 219 237 234 230 228 210 201 204 193 180 178 191 189 167 143 82 71 58 76 60 21 4 358 2 7 12 18 22 22 20 17 20 25 29 30
246 241 245 240 244 232 230 226 209 196 202 206 187 179 205 197 214 220 203 136 39 100 136 106 14 350 358 8 14 16 21 23 22 20 20 21 24 25
253 251 256 251 246 238 230 226 211 201 200 204 202 200 206 205 221 229 222 211 284 341 72 79 103 103 17 10 16 20 23 24 25 23 22 21 22 22
243 246 263 325 342 292 258 231 213 213 209 211 212 212 212 210 218 225 237 239 241 265 294 325 342 360 26 76 22 21 30 28 25 23 25 20 17 16
249 247 241 213 215 218 267 287 269 234 225 223 227 226 226 220 217 222 231 242 253 216 273 304 318 327 6 19 50 81 62 25 12 9 14 13 5 359
255 250 244 233 222 216 190 198 232 273 276 255 242 236 231 216 211 217 229 249 266 268 264 278 275 281 324 29 61 66 195 236 300 324 339 345 342 334
248 243 239 238 229 228 212 208 218 224 236 242 246 246 234 220 218 224 228 231 244 242 255 275 283 280 284 296 145 171 194 243 265 282 295 305 309 309
243 245 250 249 159 210 224 218 218 222 154 273 310 317 8 248 221 207 210 221 236 235 226 257 275 282 276 259 188 182 205 233 265 271 279 291 293 284
240 241 239 247 188 205 222 227 230 230 218 204 199 199 204 199 213 225 230 240 249 248 213 238 262 274 269 259 279 258 243 237 242 258 266 276 286 284
238 236 228 188 205 216 240 243 257 261 230 224 212 201 198 200 205 223 240 248 255 260 241 236 261 267 271 278 285 289 291 293 270 257 251 247 244 258
240 240 224 184 205 213 222 218 180 235 231 215 212 214 216 216 215 214 226 240 261 266 258 250 258 263 269 275 281 283 289 296 296 291 288 248 230 231
241 239 208 191 204 211 208 199 201 223 225 223 221 225 232 228 212 199 207 211 248 267 265 257 250 255 262 267 277 286 291 293 293 294 296 297 290 275
230 192 189 203 221 226 199 203 220 225 226 227 231 229 221 220 218 212 215 211 224 248 249 251 245 245 252 263 270 279 287 286 294 296 292 290 291 284
215 210 213 213 216 216 217 216 216 213 219 224 219 220 219 221 226 229 229 228 235 246 246 236 240 239 251 261 263 270 278 283 289 295 286 284 283 287
205 219 223 224 225 223 220 216 213 214 218 219 219 223 224 224 224 225 225 227 234 240 242 233 225 237 247 261 257 267 277 282 287 286 276 278 277 283
216 229 231 230 227 225 222 220 218 218 215 216 220 223 226 227 227 227 227 228 234 240 242 241 234 240 257 270 256 237 269 283 284 282 279 277 276 283
228 231 229 229 227 225 221 221 220 215 214 216 220 223 223 224 225 228 230 231 236 241 245 247 245 246 255 268 276 277 246 267 279 278 281 281 276 275
225 229 230 230 230 226 221 219 217 216 215 214 217 221 223 225 226 227 230 230 236 239 246 256 266 258 255 254 263 270 284 245 265 281 285 281 283 278
227 229 231 231 226 221 216 214 215 217 216 217 217 220 223 226 226 226 227 226 229 236 248 255 248 237 237 244 258 273 280 282 250 254 268 279 286 274
229 229 227 226 222 219 215 214 216 218 217 216 216 218 221 225 227 228 228 229 231 232 236 242 244 242 240 244 260 272 278 283 284 275 265 241 252 265
Height
1549 1548 1548 1547 1547 1546 1546 1547 1548 1547 1547 1546 1545 1544 1543 1542 1541 1540 1539 1538 1537 1536 1535 1534 1533 1532 1530 1529 1528 1526 1525 1524 1522 1521 1520 1519 1518 1516
1547 1547 1547 1546 1546 1545 1545 1545 1546 1546 1546 1545 1544 1544 1543 1542 1541 1540 1539 1538 1537 1536 1535 1534 1533 1531 1530 1529 1528 1526 1525 1524 1523 1521 1520 1519 1517 1516
1546 1546 1546 1545 1545 1544 1544 1544 1544 1544 1544 1544 1543 1543 1542 1541 1541 1540 1540 1538 1537 1536 1535 1534 1533 1531 1530 1529 1528 1526 1525 1524 1523 1521 1520 1519 1517 1516
1545 1545 1544 1544 1543 1543 1543 1542 1542 1542 1542 1542 1542 1541 1541 1541 1540 1540 1539 1538 1537 1536 1535 1533 1532 1531 1530 1528 1527 1526 1525 1523 1522 1521 1520 1519 1517 1516
1543 1543 1543 1543 1542 1542 1541 1541 1541 1540 1540 1541 1540 1540 1540 1539 1539 1538 1538 1537 1536 1535 1534 1533 1531 1530 1529 1528 1527 1525 1524 1523 1522 1520 1519 1518 1517 1515
1541 1541 1541 1541 1540 1540 1539 1539 1539 1538 1538 1539 1539 1538 1538 1538 1537 1537 1537 1536 1535 1534 1533 1532 1530 1529 1528 1527 1526 1525 1523 1522 1521 1520 1518 1517 1515 1514
1539 1539 1538 1538 1538 1538 1537 1537 1537 1537 1537 1537 1537 1536 1536 1536 1536 1535 1535 1534 1533 1533 1532 1531 1530 1528 1527 1525 1524 1523 1522 1521 1520 1518 1517 1515 1514 1513
1537 1537 1536 1535 1535 1535 1534 1534 1535 1535 1535 1535 1534 1534 1534 1534 1534 1534 1533 1533 1533 1532 1531 1530 1528 1527 1526 1524 1523 1522 1521 1519 1518 1517 1515 1514 1513 1511
1534 1534 1533 1533 1532 1532 1532 1531 1532 1532 1532 1532 1532 1532 1532 1532 1531 1531 1531 1531 1531 1530 1529 1528 1527 1525 1524 1522 1521 1520 1519 1518 1516 1515 1513 1512 1511 1509
1531 1531 1530 1530 1529 1529 1529 1529 1529 1528 1528 1528 1528 1528 1529 1529 1529 1529 1529 1528 1528 1527 1527 1526 1525 1524 1522 1520 1519 1517 1516 1515 1514 1513 1511 1510 1509 1507
1528 1527 1527 1527 1526 1526 1526 1526 1525 1525 1525 1525 1525 1525 1525 1526 1526 1526 1526 1526 1526 1525 1524 1524 1522 1521 1519 1518 1516 1515 1514 1512 1511 1510 1509 1507 1506 1505
1524 1523 1523 1523 1523 1522 1523 1523 1523 1522 1522 1521 1521 1522 1522 1522 1522 1523 1523 1524 1523 1523 1521 1521 1520 1519 1518 1516 1514 1513 1511 1510 1508 1507 1506 1504 1503 1502
1520 1520 1520 1519 1519 1519 1519 1520 1520 1519 1519 1519 1518 1519 1519 1519 1519 1519 1520 1520 1520 1520 1519 1518 1517 1517 1516 1514 1512 1510 1509 1507 1505 1504 1502 1501 1500 1499
1517 1517 1516 1516 1515 1516 1516 1516 1516 1516 1516 1516 1515 1516 1516 1516 1516 1516 1516 1516 1516 1516 1515 1515 1514 1513 1512 1511 1509 1507 1506 1504 1503 1501 1499 1498 1496 1495
1513 1512 1512 1512 1512 1512 1512 1512 1513 1513 1513 1513 1512 1513 1513 1513 1513 1512 1512 1512 1512 1511 1511 1511 1510 1509 1509 1507 1506 1504 1503 1501 1499 1498 1496 1495 1493 1492
1508 1508 1508 1508 1508 1508 1508 1509 1509 1509 1509 1509 1509 1509 1509 1509 1509 1509 1509 1508 1508 1507 1507 1506 1506 1505 1504 1503 1502 1501 1499 1498 1496 1495 1493 1491 1490 1488
1504 1504 1504 1504 1504 1504 1504 1505 1505 1505 1505 1505 1505 1505 1505 1505 1505 1505 1505 1505 1504 1504 1503 1502 1502 1501 1500 1499 1498 1497 1496 1494 1493 1491 1489 1488 1486 1485
1500 1500 1500 1500 1500 1500 1500 1500 1500 1501 1501 1501 1501 1501 1501 1501 1501 1501 1501 1501 1501 1500 1499 1499 1498 1497 1496 1495 1495 1493 1492 1490 1489 1487 1485 1484 1482 1481
1495 1495 1495 1496 1496 1496 1496 1496 1496 1496 1496 1497 1497 1497 1497 1497 1497 1497 1497 1497 1496 1496 1495 1495 1494 1493 1493 1491 1490 1489 1488 1486 1485 1483 1481 1479 1478 1476
1490 1490 1491 1491 1491 1491 1491 1491 1491 1491 1492 1492 1492 1492 1493 1493 1493 1493 1493 1493 1492 1492 1491 1491 1490 1490 1489 1488 1486 1485 1484 1482 1481 1479 1477 1475 1473 1472
1485 1485 1485 1486 1486 1486 1486 1486 1487 1487 1487 1488 1488 1488 1488 1488 1488 1488 1488 1488 1488 1487 1487 1487 1486 1485 1484 1484 1482 1481 1480 1478 1476 1475 1473 1471 1469 1468
1480 1480 1480 1480 1481 1481 1481 1481 1482 1482 1483 1483 1483 1483 1484 1484 1484 1484 1484 1484 1483 1483 1483 1482 1481 1481 1480 1479 1478 1476 1475 1473 1472 1470 1469 1467 1466 1464
1475 1475 1475 1475 1476 1476 1476 1477 1477 1477 1478 1478 1478 1479 1479 1479 1479 1480 1479 1479 1479 1479 1478 1478 1477 1476 1475 1475 1474 1472 1471 1469 1467 1466 1465 1463 1462 1460